• In Österreich
  • Länderverzeichnis
  • Für 7 Tage
  • Wassertemperatur
  • Satellitenkarten
  • Wetterkarte
  • News
  • Widgets
  • user-avatar
    Anmelden

    Stündliche Wetter San Miguel de Tucumán

    Heute, 18 Dezember, Montag

    Zeit Temperatur Niederschläge Wind Luftdruck Luftfeuchtigkeit
    00:00 +21°C° 0 mm 1 m/S 724 mmHg 62%
    01:00 +21°C° 0 mm 1 m/S 724 mmHg 60%
    02:00 +21°C° 0 mm 1 m/S 724 mmHg 60%
    03:00 +20°C° 0 mm 1 m/S 724 mmHg 61%
    04:00 +20°C° 0 mm 1 m/S 724 mmHg 61%
    05:00 +19°C° 0 mm 1 m/S 724 mmHg 61%
    06:00 +20°C° 0 mm 1 m/S 724 mmHg 58%
    07:00 +21°C° 0 mm 1 m/S 724 mmHg 55%
    08:00 +22°C° 0 mm 1 m/S 724 mmHg 52%
    09:00 +24°C° 0 mm 1 m/S 723 mmHg 48%
    10:00 +25°C° 0 mm 2 m/S 723 mmHg 45%
    11:00 +27°C° 0 mm 2 m/S 722 mmHg 41%
    12:00 +28°C° 0 mm 3 m/S 721 mmHg 40%
    13:00 +29°C° 0 mm 3 m/S 721 mmHg 40%
    14:00 +30°C° 0 mm 3 m/S 720 mmHg 39%
    15:00 +29°C° 0 mm 3 m/S 719 mmHg 42%
    16:00 +29°C° 0 mm 3 m/S 719 mmHg 45%
    17:00 +28°C° 0 mm 2 m/S 718 mmHg 48%
    18:00 +27°C° 0 mm 2 m/S 719 mmHg 52%
    19:00 +25°C° 0 mm 1 m/S 719 mmHg 57%
    20:00 +24°C° 0 mm 1 m/S 719 mmHg 62%
    21:00 +24°C° 0 mm 1 m/S 720 mmHg 63%
    22:00 +23°C° 0 mm 1 m/S 720 mmHg 65%
    23:00 +23°C° 0 mm 1 m/S 720 mmHg 66%

    Morgen, 19 Dezember, Dienstag

    Zeit Temperatur Niederschläge Wind Luftdruck Luftfeuchtigkeit
    00:00 +23°C° 0 mm 1 m/S 720 mmHg 67%
    01:00 +23°C° 0 mm 1 m/S 720 mmHg 67%
    02:00 +22°C° 0 mm 1 m/S 719 mmHg 68%
    03:00 +22°C° 0 mm 1 m/S 719 mmHg 68%
    04:00 +22°C° 0 mm 1 m/S 719 mmHg 68%
    05:00 +22°C° 0 mm 1 m/S 719 mmHg 68%
    06:00 +24°C° 0,1 mm 1 m/S 719 mmHg 65%
    07:00 +26°C° 0,1 mm 1 m/S 720 mmHg 62%
    08:00 +27°C° 0,1 mm 1 m/S 720 mmHg 59%
    09:00 +29°C° 0,1 mm 2 m/S 720 mmHg 55%
    10:00 +31°C° 0,1 mm 2 m/S 720 mmHg 52%
    11:00 +33°C° 0,1 mm 3 m/S 720 mmHg 48%
    12:00 +34°C° 0 mm 3 m/S 719 mmHg 47%
    13:00 +35°C° 0 mm 3 m/S 719 mmHg 46%
    14:00 +35°C° 0 mm 2 m/S 718 mmHg 45%
    15:00 +35°C° 0,5 mm 2 m/S 718 mmHg 48%
    16:00 +34°C° 0,5 mm 2 m/S 717 mmHg 51%
    17:00 +34°C° 0,5 mm 2 m/S 717 mmHg 54%
    18:00 +31°C° 1,3 mm 1 m/S 717 mmHg 61%
    19:00 +29°C° 1,3 mm 1 m/S 718 mmHg 67%
    20:00 +28°C° 1,3 mm 1 m/S 718 mmHg 74%
    21:00 +27°C° 1,9 mm 1 m/S 719 mmHg 77%
    22:00 +26°C° 1,9 mm 1 m/S 719 mmHg 81%
    23:00 +23°C° 1,9 mm 0 m/S 720 mmHg 85%

    übermorgen, 20 Dezember, Mittwoch

    Zeit Temperatur Niederschläge Wind Luftdruck Luftfeuchtigkeit
    00:00 +23°C° 1 mm 0 m/S 719 mmHg 86%
    01:00 +25°C° 1 mm 1 m/S 719 mmHg 88%
    02:00 +25°C° 1 mm 1 m/S 719 mmHg 89%
    03:00 +24°C° 0,1 mm 1 m/S 718 mmHg 90%
    04:00 +24°C° 0,1 mm 1 m/S 718 mmHg 91%
    05:00 +24°C° 0,1 mm 1 m/S 718 mmHg 92%
    06:00 +25°C° 0,1 mm 1 m/S 719 mmHg 89%
    07:00 +26°C° 0,1 mm 1 m/S 719 mmHg 86%
    08:00 +26°C° 0,1 mm 1 m/S 719 mmHg 83%
    09:00 +28°C° 0,2 mm 1 m/S 719 mmHg 77%
    10:00 +30°C° 0,2 mm 1 m/S 719 mmHg 71%
    11:00 +31°C° 0,2 mm 1 m/S 719 mmHg 65%
    12:00 +32°C° 0,4 mm 2 m/S 718 mmHg 63%
    13:00 +32°C° 0,4 mm 2 m/S 717 mmHg 60%
    14:00 +34°C° 0,4 mm 2 m/S 716 mmHg 58%
    15:00 +34°C° 0,2 mm 2 m/S 716 mmHg 58%
    16:00 +34°C° 0,2 mm 2 m/S 715 mmHg 58%
    17:00 +34°C° 0,2 mm 2 m/S 714 mmHg 58%
    18:00 +31°C° 0,2 mm 2 m/S 715 mmHg 64%
    19:00 +29°C° 0,2 mm 2 m/S 715 mmHg 70%
    20:00 +28°C° 0,2 mm 2 m/S 715 mmHg 76%
    21:00 +27°C° 0,1 mm 1 m/S 715 mmHg 77%
    22:00 +27°C° 0,1 mm 1 m/S 716 mmHg 77%
    23:00 +27°C° 0,1 mm 1 m/S 716 mmHg 78%

    21 Dezember, Donnerstag

    Zeit Temperatur Niederschläge Wind Luftdruck Luftfeuchtigkeit
    00:00 +26°C° 0 mm 1 m/S 715 mmHg 78%
    01:00 +26°C° 0 mm 1 m/S 715 mmHg 78%
    02:00 +26°C° 0 mm 1 m/S 714 mmHg 78%
    03:00 +25°C° 0 mm 1 m/S 714 mmHg 78%
    04:00 +25°C° 0 mm 1 m/S 714 mmHg 78%
    05:00 +25°C° 0 mm 1 m/S 714 mmHg 78%
    06:00 +27°C° 0 mm 1 m/S 715 mmHg 73%
    07:00 +28°C° 0 mm 1 m/S 716 mmHg 68%
    08:00 +30°C° 0 mm 1 m/S 717 mmHg 63%
    09:00 +31°C° 0,3 mm 1 m/S 717 mmHg 60%
    10:00 +34°C° 0,3 mm 2 m/S 717 mmHg 56%
    11:00 +35°C° 0,3 mm 2 m/S 717 mmHg 53%
    12:00 +35°C° 1,2 mm 2 m/S 716 mmHg 53%
    13:00 +36°C° 1,2 mm 2 m/S 715 mmHg 53%
    14:00 +36°C° 1,2 mm 2 m/S 715 mmHg 54%
    15:00 +35°C° 1,9 mm 2 m/S 714 mmHg 57%
    16:00 +34°C° 1,9 mm 2 m/S 714 mmHg 60%
    17:00 +34°C° 1,9 mm 2 m/S 714 mmHg 63%
    18:00 +31°C° 0,9 mm 2 m/S 714 mmHg 67%
    19:00 +30°C° 0,9 mm 2 m/S 714 mmHg 71%
    20:00 +28°C° 0,9 mm 1 m/S 715 mmHg 75%
    21:00 +28°C° 0,5 mm 1 m/S 715 mmHg 77%
    22:00 +27°C° 0,5 mm 1 m/S 715 mmHg 78%
    23:00 +27°C° 0,5 mm 1 m/S 715 mmHg 80%

    22 Dezember, Freitag

    Zeit Temperatur Niederschläge Wind Luftdruck Luftfeuchtigkeit
    00:00 +26°C° 0 mm 1 m/S 714 mmHg 79%
    01:00 +26°C° 0 mm 1 m/S 714 mmHg 78%
    02:00 +26°C° 0 mm 1 m/S 713 mmHg 78%
    03:00 +26°C° 0 mm 1 m/S 713 mmHg 77%
    04:00 +26°C° 0 mm 1 m/S 713 mmHg 77%
    05:00 +25°C° 0 mm 1 m/S 713 mmHg 77%
    06:00 +27°C° 0 mm 1 m/S 713 mmHg 72%
    07:00 +29°C° 0 mm 1 m/S 714 mmHg 67%
    08:00 +30°C° 0 mm 1 m/S 714 mmHg 62%
    09:00 +32°C° 0 mm 1 m/S 714 mmHg 56%
    10:00 +35°C° 0 mm 2 m/S 714 mmHg 49%
    11:00 +37°C° 0 mm 2 m/S 714 mmHg 43%
    12:00 +38°C° 0 mm 2 m/S 713 mmHg 41%
    13:00 +39°C° 0 mm 2 m/S 712 mmHg 39%
    14:00 +40°C° 0 mm 2 m/S 712 mmHg 37%
    15:00 +39°C° 0,3 mm 2 m/S 712 mmHg 41%
    16:00 +37°C° 0,3 mm 1 m/S 711 mmHg 45%
    17:00 +36°C° 0,3 mm 1 m/S 711 mmHg 49%
    18:00 +34°C° 1,1 mm 1 m/S 712 mmHg 55%
    19:00 +32°C° 1,1 mm 1 m/S 712 mmHg 61%
    20:00 +30°C° 1,1 mm 2 m/S 713 mmHg 67%
    21:00 +29°C° 1,2 mm 2 m/S 713 mmHg 70%
    22:00 +28°C° 1,2 mm 3 m/S 714 mmHg 73%
    23:00 +27°C° 1,2 mm 3 m/S 714 mmHg 76%

    23 Dezember, Samstag

    Zeit Temperatur Niederschläge Wind Luftdruck Luftfeuchtigkeit
    00:00 +27°C° 3 mm 3 m/S 714 mmHg 82%
    01:00 +26°C° 3 mm 3 m/S 715 mmHg 88%
    02:00 +25°C° 3 mm 4 m/S 715 mmHg 94%
    03:00 +25°C° 2,6 mm 4 m/S 715 mmHg 94%
    04:00 +23°C° 2,6 mm 4 m/S 716 mmHg 94%
    05:00 +23°C° 2,6 mm 4 m/S 717 mmHg 94%
    06:00 +23°C° 1,4 mm 4 m/S 718 mmHg 94%
    07:00 +23°C° 1,4 mm 4 m/S 718 mmHg 93%
    08:00 +23°C° 1,4 mm 4 m/S 719 mmHg 93%
    09:00 +23°C° 0,8 mm 4 m/S 719 mmHg 87%
    10:00 +25°C° 0,8 mm 4 m/S 720 mmHg 82%
    11:00 +25°C° 0,8 mm 4 m/S 720 mmHg 76%
    12:00 +27°C° 0,1 mm 4 m/S 719 mmHg 70%
    13:00 +29°C° 0,1 mm 4 m/S 719 mmHg 64%
    14:00 +30°C° 0,1 mm 4 m/S 718 mmHg 58%
    15:00 +30°C° 0,1 mm 3 m/S 718 mmHg 58%
    16:00 +30°C° 0,1 mm 3 m/S 717 mmHg 59%
    17:00 +30°C° 0,1 mm 3 m/S 717 mmHg 60%
    18:00 +28°C° 0,1 mm 2 m/S 717 mmHg 65%
    19:00 +27°C° 0,1 mm 2 m/S 718 mmHg 70%
    20:00 +26°C° 0,1 mm 1 m/S 718 mmHg 75%
    21:00 +25°C° 0,5 mm 1 m/S 718 mmHg 78%
    22:00 +25°C° 0,5 mm 1 m/S 719 mmHg 80%
    23:00 +24°C° 0,5 mm 1 m/S 719 mmHg 83%
    Mehr zeigen